Regional Weather Roundup
Issued by NWS

Home | Current Version | Previous Version | Graphics & Text | Print | Product List | Glossary On
Versions: 1 2 3 4 5 6 7 8 9 10 11 12 13 14 15 16 17 18 19 20 21 22 23 24 25 26 27 28 29 30 31 32 33 34 35 36 37 38 39 40 41 42 43 44 45 46 47 48 49 50
000
ASUS43 KBIS 261602
RWRND

NORTH DAKOTA REGIONAL WEATHER ROUNDUP
NATIONAL WEATHER SERVICE BISMARCK ND
1100 AM CDT WED APR 26 2017

NOTE: "FAIR" INDICATES FEW OR NO CLOUDS BELOW 12,000 FEET WITH NO
SIGNIFICANT WEATHER AND/OR OBSTRUCTIONS TO VISIBILITY.


NDZ001>003-009>011-017-261700-
NORTHWEST NORTH DAKOTA

CITY           SKY/WX    TMP DP  RH WIND       PRES   REMARKS
WILLISTON      FAIR      40  22  48 E7        29.93F
MINOT          FAIR      38  22  52 N18G25    29.91F
MINOT AFB      FAIR      35  21  56 N15G24    29.91F
$$

NDZ018>021-031>035-040>046-261700-
SOUTHWEST NORTH DAKOTA

CITY           SKY/WX    TMP DP  RH WIND       PRES   REMARKS
BISMARCK       CLOUDY    37  24  59 N15G21    29.86F
DICKINSON      PTSUNNY   37  22  54 N14       29.85F
GARRISON         N/A     34  21  59 N13G21    29.88F
HETTINGER ARPT CLOUDY    34  23  64 N13G20    29.87S
$$

NDZ004>008-012>016-024-026-027-054-261700-
NORTHEAST NORTH DAKOTA

CITY           SKY/WX    TMP DP  RH WIND       PRES   REMARKS
GRAND FORKS    CLOUDY    31  24  75 N22       29.83F WCI  18
GRND FRKS AFB  CLOUDY    29  23  77 NE20      29.84S WCI  17
DEVILS LAKE    CLOUDY    30  23  75 NE18      29.86F WCI  18
$$

NDZ022-023-025-028>030-036>039-047>053-261700-
SOUTHEAST NORTH DAKOTA

CITY           SKY/WX    TMP DP  RH WIND       PRES   REMARKS
FARGO          MIX PCPN  29  26  89 N17       29.76S WCI  17
JAMESTOWN      CLOUDY    29  24  82 N18       29.80S WCI  16
$$




USA.gov is the U.S. government's official web portal to all federal, state and local government web resources and services.